TIANLIAN 1-04 (41869 NORAD) Tracking and Keplerian Element Data

This shows tracking and keplerian element data for the satellite.

Feedback or suggestion? Click here.




ElementValue
Catalog41869
NameTIANLIAN 1-04
Epoch Orbit632
Epoch Day198.92944919
Epoch Year2018
RAAN286.6875
Inclination1.8184
Eccentricity0.0014746
Argument of Perigee161.729
Mean Anonmoly258.947
Mean Motion1.00271799
Decay Rate-1.26E-06
L11 41869U 16072A 18198.92944919 -.00000126 00000-0 00000-0 0 9998
L22 41869 1.8184 286.6875 0014746 161.7290 258.9470 1.00271799 6324

Live tracking and technical data element details for TIANLIAN 1-04 (NORAD 41869). TIANLIAN 1-04 can be tracked NOW for your location showing map with azimuth and elevation plus other details from your city location.

Track the satellite on the map from your city or location and see movement details for azimuth, elevation, latitude, longitude, range, height, and movement on the map or in text.







IsCatalogInMostPopularTable: catalog: 41869, numindb: 75
Update: records affected: 1



GetName: 41869 TIANLIAN 1-04

Hit Count: updated at: Thu, 19 Jul 2018 21:14:18 GMT